DW2959 Murcia ES current weather conditions

sailwx.info

Wind from 074

Air temperature 21.1° C
Dewpoint 13.3° C

Last reported at 2017-May-28 21:09 UTC.
Time now 2017-May-28 22:03 UTC

Location: N 38°00' W 001°02'.
View on Google Maps.

See reports from other nearby stations

  
Tides and Currents Weather Stations Pressure Air Temp Water Temp Dewpoint Dewpoint Depression Visibility Wind Speed Wind Dir Waves Ship Positions
date/time (UTC)wind fromknots sea level pressurealtimeterstation pressurevisibilityair tempwater tempwave heightnotes
2017-May-28 21:09 074 21.1
2017-May-28 20:54 074 21.1
2017-May-28 20:38 075 21.7
2017-May-28 20:23 073 21.7
2017-May-28 20:08 080 1 gusting 5 21.7
2017-May-28 19:53 074 2 gusting 6 22.2
2017-May-28 19:38 059 0 gusting 5 22.2
2017-May-28 19:23 076 0 gusting 6 22.8
2017-May-28 19:08 073 2 gusting 9 22.8
2017-May-28 18:53 081 3 gusting 8 22.8
2017-May-28 18:38 081 1 gusting 9 23.3
2017-May-28 18:23 088 6 gusting 12 23.3
2017-May-28 18:08 095 4 gusting 10 23.3
2017-May-28 17:53 048 6 gusting 13 23.9
2017-May-28 17:38 100 6 gusting 13 23.9
2017-May-28 17:22 068 6 gusting 14 24.4
2017-May-28 17:08 040 6 gusting 14 24.4
2017-May-28 16:52 098 5 gusting 13 25.6
2017-May-28 16:37 093 6 gusting 13 25.6
2017-May-28 16:22 070 6 gusting 13 26.1
2017-May-28 16:07 100 6 gusting 13 26.7
2017-May-28 15:53 102 5 gusting 15 26.1
2017-May-28 15:37 080 2 gusting 14 26.7
2017-May-28 15:21 078 5 gusting 13 26.7
2017-May-28 15:06 073 6 gusting 15 26.7
2017-May-28 14:52 087 6 gusting 16 26.7
2017-May-28 14:37 114 7 gusting 15 27.2
2017-May-28 14:22 084 7 gusting 13 27.2
2017-May-28 14:07 087 8 gusting 16 27.8
2017-May-28 13:51 079 8 gusting 16 27.8
2017-May-28 13:36 112 8 gusting 18 27.8
2017-May-28 13:21 093 7 gusting 19 27.8
2017-May-28 13:06 017 6 gusting 14 27.8
2017-May-28 12:51 026 7 gusting 15 27.8
2017-May-28 12:35 072 6 gusting 14 27.8
2017-May-28 12:21 064 5 gusting 13 27.8
2017-May-28 12:06 024 6 gusting 12 28.3
2017-May-28 11:51 057 6 gusting 13 27.8
2017-May-28 11:35 063 6 gusting 11 27.8
2017-May-28 11:20 101 6 gusting 13 27.2
2017-May-28 11:05 051 5 gusting 13 27.2
2017-May-28 10:50 067 3 gusting 13 26.7
2017-May-28 10:35 069 5 gusting 11 27.2
2017-May-28 10:21 073 5 gusting 14 26.7
2017-May-28 10:05 093 6 gusting 12 26.7
2017-May-28 09:50 078 6 gusting 14 26.7
2017-May-28 09:36 068 3 gusting 15 26.7
2017-May-28 09:21 048 5 gusting 16 26.1
2017-May-28 09:05 031 6 gusting 11 26.1
2017-May-28 08:50 092 4 gusting 9 25.6
2017-May-28 08:35 042 2 gusting 7 25.0
2017-May-28 08:20 034 0 gusting 2 24.4
2017-May-28 08:05 264 23.3
2017-May-28 07:50 264 22.8
2017-May-28 07:35 261 0 gusting 3 22.2
2017-May-28 07:21 259 21.7
2017-May-28 07:03 259 1 gusting 6 21.7
2017-May-28 06:47 249 21.1
2017-May-28 06:35 223 0 gusting 4 20.6
2017-May-28 06:18 221 20.0
2017-May-28 06:03 220 20.0
2017-May-28 05:48 242 19.4
2017-May-28 05:32 223 1 gusting 6 18.9
2017-May-28 05:17 239 18.9
2017-May-28 05:02 235 3 gusting 8 18.9
2017-May-28 04:47 235 1 gusting 6 18.3
2017-May-28 04:32 217 0 gusting 6 18.3
2017-May-28 04:20 241 18.9
2017-May-28 04:02 242 0 gusting 4 18.9
2017-May-28 03:46 238 1 gusting 4 19.4
2017-May-28 03:32 224 19.4
2017-May-28 03:17 231 19.4
2017-May-28 03:01 221 19.4
2017-May-28 02:46 213 2 gusting 5 18.9
2017-May-28 02:32 222 0 gusting 6 18.3
2017-May-28 02:16 082 17.8
2017-May-28 02:01 080 17.8
2017-May-28 01:46 080 17.8
2017-May-28 01:31 079 18.3
2017-May-28 01:16 079 18.9
2017-May-28 01:00 079 19.4
2017-May-28 00:45 079 19.4
2017-May-28 00:30 079 19.4
2017-May-28 00:15 079 19.4
2017-May-28 00:00 079 20.0
2017-May-27 23:46 079 20.0
2017-May-27 23:30 079 20.6
2017-May-27 23:15 079 21.1
2017-May-27 23:00 079 21.1
2017-May-27 22:44 079 21.7
2017-May-27 22:30 079 21.7
2017-May-27 22:15 079 21.7
2017-May-27 22:02 079 21.7
2017-May-27 21:44 079 21.7
2017-May-27 21:30 079 22.2
2017-May-27 21:15 078 22.2
2017-May-27 20:59 078 22.8
2017-May-27 20:44 078 22.8
2017-May-27 20:29 078 22.8
2017-May-27 20:14 078 22.8
2017-May-27 19:59 077 23.3
2017-May-27 19:43 076 0 gusting 5 23.3
2017-May-27 19:28 080 1 gusting 6 23.9
2017-May-27 19:14 086 2 gusting 8 23.9
2017-May-27 18:59 069 2 gusting 10 24.4
2017-May-27 18:43 078 2 gusting 11 24.4
2017-May-27 18:29 091 2 gusting 11 25.0
2017-May-27 18:13 099 6 gusting 11 25.6
2017-May-27 17:58 043 5 gusting 13 26.1
2017-May-27 17:42 128 4 gusting 14 26.7
2017-May-27 17:28 094 5 gusting 13 26.7
2017-May-27 17:13 051 6 gusting 17 27.2
2017-May-27 16:58 078 6 gusting 13 27.2
2017-May-27 16:42 073 5 gusting 12 27.2
2017-May-27 16:28 094 4 gusting 11 27.8
2017-May-27 16:13 082 6 gusting 13 27.8
2017-May-27 15:57 086 6 gusting 13 27.8
2017-May-27 15:44 130 7 gusting 14 27.8
2017-May-27 15:27 083 7 gusting 13 27.8
2017-May-27 15:13 117 5 gusting 13 28.3
2017-May-27 14:56 098 6 gusting 13 28.3
2017-May-27 14:42 084 8 gusting 14 28.3
2017-May-27 14:27 046 6 gusting 13 28.3
2017-May-27 14:12 071 6 gusting 13 28.3
2017-May-27 13:57 126 8 gusting 16 28.3
2017-May-27 13:42 117 8 gusting 13 28.3
2017-May-27 13:27 097 6 gusting 14 28.3
2017-May-27 13:11 060 6 gusting 13 28.3
2017-May-27 12:57 091 6 gusting 15 28.3
2017-May-27 12:42 100 6 gusting 13 27.8
2017-May-27 12:26 096 6 gusting 13 27.2
2017-May-27 12:11 076 6 gusting 15 27.2
2017-May-27 11:56 086 6 gusting 14 27.2
2017-May-27 11:40 090 8 gusting 15 26.7
2017-May-27 11:26 106 6 gusting 13 26.7
2017-May-27 11:10 115 7 gusting 13 26.7
2017-May-27 10:55 107 7 gusting 14 26.7
2017-May-27 10:40 045 7 gusting 16 26.7
2017-May-27 10:26 088 6 gusting 17 26.7
2017-May-27 10:11 090 8 gusting 14 26.7
2017-May-27 09:55 099 7 gusting 14 26.7
2017-May-27 09:40 121 4 gusting 12 26.7
2017-May-27 09:26 112 6 gusting 14 27.2
2017-May-27 09:10 073 5 gusting 12 27.2
2017-May-27 08:54 067 2 gusting 6 26.7
2017-May-27 08:39 028 2 gusting 4 25.6
2017-May-27 08:25 030 24.4
2017-May-27 08:09 225 1 gusting 5 23.9
2017-May-27 07:54 213 0 gusting 6 23.3
2017-May-27 07:38 261 0 gusting 6 22.8
2017-May-27 07:23 226 1 gusting 6 22.2
2017-May-27 07:09 236 1 gusting 6 21.7
2017-May-27 06:54 240 2 gusting 6 21.1
2017-May-27 06:39 238 2 gusting 6 20.6
2017-May-27 06:24 227 1 gusting 5 20.6
2017-May-27 06:08 233 0 gusting 6 20.0
2017-May-27 05:53 257 0 gusting 6 19.4
2017-May-27 05:38 237 19.4
2017-May-27 05:23 223 18.9
2017-May-27 05:11 229 18.9
2017-May-27 04:52 232 18.9
2017-May-27 04:37 234 18.9
2017-May-27 04:23 216 0 gusting 4 18.9
2017-May-27 04:07 300 18.9
2017-May-27 03:53 263 18.9
2017-May-27 03:36 264 18.9
2017-May-27 03:22 261 18.9
2017-May-27 03:07 221 18.9
2017-May-27 02:51 220 18.9
2017-May-27 02:36 220 19.4
2017-May-27 02:20 220 19.4
2017-May-27 02:06 220 20.0
2017-May-27 01:54 217 19.4
2017-May-27 01:36 225 0 gusting 4 19.4
2017-May-27 01:21 339 18.9
2017-May-27 01:05 096 18.3
2017-May-27 00:50 096 18.3
2017-May-27 00:35 096 18.9
2017-May-27 00:20 096 18.9
2017-May-27 00:05 096 19.4
2017-May-26 23:50 096 19.4
2017-May-26 23:34 096 19.4
2017-May-26 23:19 096 19.4
2017-May-26 23:04 096 19.4
2017-May-26 22:49 096 20.0
2017-May-26 22:35 095 20.0
2017-May-26 22:20 096 19.4
2017-May-26 22:03 096 20.6